| time (UTC) | temp F | wind direction | speed MPH | gust MPH | rain 1hr in | rain 24hr in | rain mn in | humidity % | barometer mb |
| 20260905144541 | 46 | 217 | 0.0 | 0.0 | 0.00 | 0.00 | 0.00 | 73 | 1011.7 |
| 20260905143031 | 44 | 216 | 0.0 | 0.0 | 0.00 | 0.00 | 0.00 | 75 | 1011.5 |
| 20260905141530 | 43 | 150 | 0.0 | 0.0 | 0.00 | 0.00 | 0.00 | 77 | 1011.5 |
| 20260905140034 | 42 | 150 | 0.0 | 2.0 | 0.00 | 0.00 | 0.00 | 77 | 1011.3 |
| 20260905134526 | 41 | 20 | 0.0 | 0.0 | 0.00 | 0.00 | 0.00 | 79 | 1011.0 |
| 20260905133024 | 40 | 20 | 0.0 | 0.0 | 0.00 | 0.00 | 0.00 | 81 | 1010.8 |
| 20260905131523 | 40 | 20 | 0.0 | 0.0 | 0.00 | 0.00 | 0.00 | 80 | 1010.6 |
| 20260905130022 | 40 | 20 | 0.0 | 0.0 | 0.00 | 0.00 | 0.00 | 78 | 1010.3 |
| 20260905124529 | 41 | 20 | 0.0 | 0.0 | 0.00 | 0.00 | 0.00 | 76 | 1010.3 |
| 20260905123015 | 43 | 25 | 0.0 | 0.0 | 0.00 | 0.00 | 0.00 | 76 | 1010.1 |
| 20260905121523 | 42 | 330 | 0.0 | 0.0 | 0.00 | 0.00 | 0.00 | 76 | 1010.0 |
| 20260905120020 | 43 | 127 | 0.0 | 0.0 | 0.00 | 0.00 | 0.00 | 72 | 1010.0 |
| 20260905114517 | 44 | 127 | 0.0 | 0.0 | 0.00 | 0.00 | 0.00 | 73 | 1009.9 |
| 20260905113017 | 44 | 127 | 0.0 | 0.0 | 0.00 | 0.00 | 0.00 | 76 | 1010.0 |
| 20260905111513 | 44 | 63 | 0.0 | 1.0 | 0.00 | 0.00 | 0.00 | 71 | 1010.0 |
| 20260905110011 | 44 | 139 | 0.0 | 0.0 | 0.00 | 0.00 | 0.00 | 72 | 1010.1 |
| 20260905104517 | 44 | 139 | 0.0 | 0.0 | 0.00 | 0.00 | 0.00 | 72 | 1010.0 |
| 20260905103007 | 44 | 190 | 0.0 | 0.0 | 0.00 | 0.00 | 0.00 | 72 | 1009.9 |
| 20260905101502 | 45 | 190 | 0.0 | 0.0 | 0.00 | 0.00 | 0.00 | 72 | 1009.7 |
| 20260905100106 | 46 | 226 | 0.0 | 0.0 | 0.00 | 0.00 | 0.00 | 74 | 1009.6 |
| 20260905094608 | 46 | 226 | 0.0 | 0.0 | 0.00 | 0.00 | 0.00 | 72 | 1009.4 |
| 20260905093056 | 46 | 226 | 0.0 | 0.0 | 0.00 | 0.00 | 0.00 | 70 | 1009.3 |
| 20260905091524 | 46 | 226 | 0.0 | 0.0 | 0.00 | 0.00 | 0.00 | 69 | 1009.2 |
| 20260905090023 | 46 | 226 | 0.0 | 0.0 | 0.00 | 0.00 | 0.00 | 68 | 1009.1 |
| 20260905084527 | 46 | 264 | 0.0 | 0.0 | 0.00 | 0.00 | 0.00 | 66 | 1009.0 |
| 20260905083016 | 48 | 264 | 0.0 | 2.0 | 0.00 | 0.00 | 0.00 | 57 | 1009.0 |
| 20260905081510 | 53 | 71 | 0.0 | 2.0 | 0.00 | 0.00 | 0.00 | 59 | 1008.8 |
| 20260905080020 | 53 | 67 | 2.0 | 3.0 | 0.00 | 0.00 | 0.00 | 58 | 1008.8 |
| 20260905074507 | 54 | 69 | 0.0 | 2.0 | 0.00 | 0.00 | 0.00 | 56 | 1008.7 |
| 20260905073006 | 54 | 65 | 1.0 | 5.0 | 0.00 | 0.00 | 0.00 | 56 | 1008.5 |
| 20260905071603 | 56 | 54 | 3.0 | 6.0 | 0.00 | 0.00 | 0.00 | 54 | 1008.3 |
| 20260905070056 | 56 | 70 | 4.0 | 7.0 | 0.00 | 0.00 | 0.00 | 54 | 1007.9 |
| 20260905064556 | 56 | 76 | 2.0 | 5.0 | 0.00 | 0.00 | 0.00 | 53 | 1008.0 |
| 20260905063048 | 56 | 68 | 3.0 | 5.0 | 0.00 | 0.00 | 0.00 | 53 | 1007.7 |
| 20260905061605 | 56 | 68 | 3.0 | 5.0 | 0.00 | 0.00 | 0.00 | 53 | 1007.6 |
| 20260905060041 | 57 | 58 | 3.0 | 7.0 | 0.00 | 0.00 | 0.00 | 52 | 1007.3 |
| 20260905054538 | 57 | 72 | 3.0 | 5.0 | 0.00 | 0.00 | 0.00 | 53 | 1007.2 |
| 20260905053006 | 57 | 69 | 3.0 | 6.0 | 0.00 | 0.00 | 0.00 | 52 | 1006.9 |
| 20260905051503 | 57 | 58 | 2.0 | 7.0 | 0.00 | 0.00 | 0.00 | 50 | 1006.7 |
| 20260905050057 | 58 | 58 | 4.0 | 7.0 | 0.00 | 0.00 | 0.00 | 49 | 1006.3 |
| 20260905044555 | 59 | 46 | 4.0 | 9.0 | 0.00 | 0.00 | 0.00 | 48 | 1006.1 |
| 20260905043112 | 60 | 49 | 5.0 | 9.0 | 0.00 | 0.00 | 0.00 | 46 | 1006.0 |
| 20260905041547 | 61 | 60 | 4.0 | 8.0 | 0.00 | 0.00 | 0.00 | 44 | 1005.9 |
| 20260905040052 | 62 | 60 | 5.0 | 11.0 | 0.00 | 0.00 | 0.00 | 43 | 1005.7 |
| 20260905034539 | 63 | 60 | 8.0 | 14.0 | 0.00 | 0.00 | 0.00 | 41 | 1005.4 |
| 20260905033041 | 64 | 57 | 9.0 | 14.0 | 0.00 | 0.00 | 0.00 | 38 | 1005.2 |
| 20260905031532 | 62 | 62 | 0.0 | 3.0 | 0.00 | 0.00 | 0.00 | 36 | 1004.9 |
| 20260905030026 | 64 | 143 | 0.0 | 1.0 | 0.00 | 0.00 | 0.00 | 34 | 1004.2 |
| 20260905024523 | 65 | 226 | 0.0 | 0.0 | 0.00 | 0.00 | 0.00 | 33 | 1003.9 |
| 20260905023019 | 66 | 269 | 0.0 | 1.0 | 0.00 | 0.00 | 0.00 | 31 | 1003.5 |
| 20260905021515 | 68 | 275 | 0.0 | 4.0 | 0.00 | 0.00 | 0.00 | 29 | 1003.3 |
| 20260905020009 | 71 | 292 | 3.0 | 9.0 | 0.00 | 0.00 | 0.00 | 27 | 1003.2 |
| 20260905014503 | 73 | 297 | 5.0 | 9.0 | 0.00 | 0.00 | 0.00 | 26 | 1003.1 |
| 20260905013102 | 74 | 284 | 6.0 | 10.0 | 0.00 | 0.00 | 0.00 | 24 | 1002.9 |
| 20260905011554 | 76 | 297 | 6.0 | 10.0 | 0.00 | 0.00 | 0.00 | 23 | 1002.9 |
| 20260905010052 | 77 | 281 | 4.0 | 13.0 | 0.00 | 0.00 | 0.00 | 23 | 1002.7 |
| 20260905004544 | 78 | 314 | 6.0 | 11.0 | 0.00 | 0.00 | 0.00 | 21 | 1002.5 |
| 20260905003044 | 78 | 328 | 3.0 | 10.0 | 0.00 | 0.00 | 0.00 | 21 | 1002.5 |
| 20260905001542 | 78 | 289 | 7.0 | 13.0 | 0.00 | 0.00 | 0.00 | 20 | 1002.3 |
| 20260905000025 | 78 | 299 | 7.0 | 13.0 | 0.00 | 0.00 | 0.00 | 20 | 1002.2 |
| 20260904234508 | 79 | 335 | 5.0 | 11.0 | 0.00 | 0.00 | 0.00 | 20 | 1002.4 |
| 20260904233005 | 77 | 304 | 2.0 | 5.0 | 0.00 | 0.00 | 0.00 | 20 | 1002.4 |
| 20260904231504 | 76 | 322 | 0.0 | 8.0 | 0.00 | 0.00 | 0.00 | 21 | 1002.6 |
| 20260904230003 | 77 | 206 | 4.0 | 10.0 | 0.00 | 0.00 | 0.00 | 20 | 1002.6 |
| 20260904224503 | 78 | 217 | 6.0 | 12.0 | 0.00 | 0.00 | 0.00 | 19 | 1002.8 |
| 20260904223033 | 80 | 211 | 8.0 | 14.0 | 0.00 | 0.00 | 0.00 | 18 | 1003.0 |
| 20260904221532 | 80 | 234 | 8.0 | 12.0 | 0.00 | 0.00 | 0.00 | 19 | 1003.1 |
| 20260904220048 | 80 | 225 | 5.0 | 12.0 | 0.00 | 0.00 | 0.00 | 20 | 1003.3 |
| 20260904214535 | 79 | 229 | 8.0 | 15.0 | 0.00 | 0.00 | 0.00 | 20 | 1003.6 |
| 20260904213026 | 79 | 217 | 2.0 | 11.0 | 0.00 | 0.00 | 0.00 | 20 | 1003.7 |
| 20260904211529 | 78 | 283 | 8.0 | 13.0 | 0.00 | 0.00 | 0.00 | 20 | 1003.8 |
| 20260904210029 | 78 | 205 | 6.0 | 15.0 | 0.00 | 0.00 | 0.00 | 21 | 1004.0 |
| 20260904204521 | 77 | 217 | 7.0 | 16.0 | 0.00 | 0.00 | 0.00 | 21 | 1004.2 |
| 20260904203031 | 77 | 245 | 11.0 | 18.0 | 0.00 | 0.00 | 0.00 | 21 | 1004.4 |
| 20260904201520 | 76 | 260 | 8.0 | 18.0 | 0.00 | 0.00 | 0.00 | 21 | 1004.4 |
| 20260904200015 | 75 | 226 | 10.0 | 19.0 | 0.00 | 0.00 | 0.00 | 22 | 1004.7 |
| 20260904194521 | 75 | 203 | 9.0 | 15.0 | 0.00 | 0.00 | 0.00 | 23 | 1004.8 |
| 20260904193016 | 74 | 243 | 7.0 | 18.0 | 0.00 | 0.00 | 0.00 | 24 | 1005.0 |
| 20260904191514 | 75 | 187 | 10.0 | 17.0 | 0.00 | 0.00 | 0.00 | 24 | 1005.4 |
| 20260904190012 | 73 | 231 | 8.0 | 17.0 | 0.00 | 0.00 | 0.00 | 24 | 1005.5 |
| 20260904184551 | 73 | 229 | 7.0 | 14.0 | 0.00 | 0.00 | 0.00 | 25 | 1005.7 |
| 20260904183048 | 72 | 236 | 5.0 | 16.0 | 0.00 | 0.00 | 0.00 | 27 | 1006.0 |
| 20260904181511 | 71 | 213 | 5.0 | 10.0 | 0.00 | 0.00 | 0.00 | 27 | 1006.1 |
| 20260904180010 | 68 | 84 | 1.0 | 7.0 | 0.00 | 0.00 | 0.00 | 35 | 1006.3 |
| 20260904174510 | 67 | 302 | 0.0 | 6.0 | 0.00 | 0.00 | 0.00 | 36 | 1006.3 |
| 20260904173025 | 66 | 326 | 2.0 | 8.0 | 0.00 | 0.00 | 0.00 | 37 | 1006.5 |
| 20260904171507 | 65 | 305 | 2.0 | 8.0 | 0.00 | 0.00 | 0.00 | 39 | 1006.6 |
| 20260904170013 | 64 | 49 | 0.0 | 5.0 | 0.00 | 0.00 | 0.00 | 41 | 1006.5 |
| 20260904164509 | 63 | 335 | 1.0 | 5.0 | 0.00 | 0.00 | 0.00 | 43 | 1006.6 |
| 20260904163007 | 63 | 65 | 0.0 | 3.0 | 0.00 | 0.00 | 0.00 | 44 | 1006.7 |
| 20260904161504 | 61 | 8 | 0.0 | 2.0 | 0.00 | 0.00 | 0.00 | 45 | 1006.8 |
| 20260904160003 | 60 | 273 | 0.0 | 4.0 | 0.00 | 0.00 | 0.00 | 47 | 1006.8 |
| 20260904154532 | 59 | 65 | 0.0 | 2.0 | 0.00 | 0.00 | 0.00 | 49 | 1006.8 |
| 20260904153031 | 57 | 352 | 0.0 | 2.0 | 0.00 | 0.00 | 0.00 | 51 | 1006.9 |
| 20260904151529 | 55 | 347 | 0.0 | 1.0 | 0.00 | 0.00 | 0.00 | 55 | 1007.0 |
| 20260904150034 | 53 | 268 | 0.0 | 0.0 | 0.00 | 0.00 | 0.00 | 57 | 1006.9 |